Rexburg, ID

9:42 AM MDT on May 22, 2017 (GMT -0600)
Rexburg-Madison County

Weather History for KRXE - September, 2013

Change the Weather History Date:

Monday, September 2, 2013

  Actual Average Record
Temperature  
Mean Temperature 65 °F 61 °F  
Max Temperature 73 °F 78 °F 91 °F (2007)
Min Temperature 56 °F 44 °F 36 °F (2006)
Degree Days  
Heating Degree Days 0 5  
Month to date heating degree days 0 9  
Since 1 July heating degree days 0 82  
Cooling Degree Days 0 1  
Month to date cooling degree days 2 2  
Year to date cooling degree days 415 204  
Growing Degree Days 14 (Base 50)    
Moisture  
Dew Point 51 °F    
Average Humidity 67    
Maximum Humidity 90    
Minimum Humidity 44    
Precipitation  
Precipitation 0.02 in 0.03 in 0.10 in (1983)
Month to date precipitation 0.02 0.06  
Year to date precipitation 5.30 8.98  
Sea Level Pressure  
Sea Level Pressure 29.97 in    
Wind  
Wind Speed 4 mph (East)    
Max Wind Speed 16 mph    
Max Gust Speed 21 mph    
Visibility 10 miles    
Events Rain    
T = Trace of Precipitation, MM = Missing Value Source: NWS Daily Summary

Daily Weather History Graph

Daily Weather History Graph

Search for Another Location

Airport or City:

Trip Planner

Search our weather history database for the weather conditions in past years. The results will help you decide how hot, cold, wet, or windy it might be!

Date:

Astronomy

Sep. 02, 2013 Rise Set
Actual Time 6:52 AM MDT 8:00 PM MDT
Civil Twilight 6:22 AM MDT 8:30 PM MDT
Nautical Twilight 5:47 AM MDT 9:05 PM MDT
Astronomical Twilight 5:09 AM MDT 9:42 PM MDT
Moon 4:09 AM MDT (9/2) 6:18 PM MDT (9/2)
Length of Visible Light 14h 07m
Length of Day
13h 08m
Waning Crescent, 7% of the Moon is Illuminated
Sep 2
Waning Crescent
Sep 5
New
Sep 12
First Quarter
Sep 19
Full
Sep 26
Last Quarter

Hourly Weather History & Observations

Time (MDT) Temp. Dew Point Humidity Pressure Visibility Wind Dir Wind Speed Gust Speed Precip Events Conditions
12:53 AM 57.0 °F 41.0 °F 55% 29.91 in 10.0 mi NE 3.5 mph - N/A   Clear
1:53 AM 57.9 °F 41.0 °F 53% 29.91 in 9.0 mi NNE 3.5 mph - N/A   Clear
2:53 AM 59.0 °F 41.0 °F 51% 29.89 in 9.0 mi NE 5.8 mph - N/A   Clear
3:53 AM 57.0 °F 42.1 °F 57% 29.89 in 10.0 mi ENE 5.8 mph - N/A   Clear
4:53 AM 57.9 °F 39.9 °F 51% 29.88 in 10.0 mi NE 4.6 mph - 0.00 in   Scattered Clouds
5:53 AM 57.9 °F 42.1 °F 56% 29.88 in 10.0 mi NE 4.6 mph - N/A   Mostly Cloudy
6:53 AM 59.0 °F 42.1 °F 53% 29.89 in 10.0 mi Calm Calm - N/A   Overcast
7:53 AM 59.0 °F 44.1 °F 58% 29.93 in 10.0 mi Calm Calm - N/A   Partly Cloudy
8:53 AM 61.0 °F 46.0 °F 58% 29.96 in 10.0 mi Calm Calm - N/A   Overcast
9:53 AM 70.0 °F 46.0 °F 42% 29.97 in 10.0 mi South 12.7 mph 18.4 mph N/A   Clear
10:53 AM 70.0 °F 55.0 °F 59% 30.00 in 10.0 mi South 9.2 mph - 0.00 in   Overcast
11:53 AM 70.0 °F 53.1 °F 55% 30.02 in 10.0 mi South 8.1 mph - N/A   Overcast
12:53 PM 64.9 °F 55.9 °F 73% 30.04 in 10.0 mi South 5.8 mph - 0.00 in Rain Light Rain
1:53 PM 64.9 °F 61.0 °F 87% 30.04 in 10.0 mi SSW 3.5 mph - 0.02 in Rain Light Rain
2:53 PM 66.0 °F 61.0 °F 84% 30.03 in 10.0 mi Calm Calm - 0.00 in   Overcast
3:53 PM 68.0 °F 57.0 °F 68% 30.02 in 10.0 mi Variable 3.5 mph - N/A   Overcast
4:53 PM 71.1 °F 55.9 °F 59% 30.00 in 10.0 mi ESE 8.1 mph - N/A   Scattered Clouds
5:53 PM 72.0 °F 55.9 °F 57% 29.99 in 10.0 mi East 3.5 mph - N/A   Scattered Clouds
6:53 PM 72.0 °F 54.0 °F 53% 29.97 in 10.0 mi ENE 3.5 mph - N/A   Clear
7:53 PM 70.0 °F 54.0 °F 57% 29.98 in 10.0 mi Calm Calm - N/A   Clear
8:53 PM 66.0 °F 55.9 °F 70% 30.00 in 10.0 mi South 3.5 mph - N/A   Clear
9:53 PM 62.1 °F 57.9 °F 86% 30.01 in 10.0 mi Calm Calm - N/A   Clear
10:53 PM 60.1 °F 57.0 °F 90% 30.02 in 10.0 mi North 3.5 mph - N/A   Clear
11:53 PM 59.0 °F 55.9 °F 90% 30.03 in 10.0 mi ENE 3.5 mph - N/A   Clear